Погода в Остахново

Россия / Новгородская область     58°55′38″N   34°30′24″E
темп.,
°C
ветер,
м/с
пор.,
м/с
влажн.,
%
обл.,
%
осадки,
мм/ч
давл.,
гПа
погр.,
м
27 октября, ср
ср2700:00+1юз31095100 0.0 1011347
03:00+2ююз31094100 0.0 1009375
06:00+2юз41094100 0.0 1008410
09:00+3юз41395100 0.6 1006593
12:00+5зюз41297100 0.2 1006693
15:00+6з51285100 0.3 1007907
18:00+6зюз41188100 0.1 1008832
21:00+5зюз41189100 0.1 1008605
28 октября, чт
чт2800:00+5юз31090100 0.0 1007503
03:00+4ю3894100 1.0 1004777
06:00+4ююв2696100 0.7 1003395
09:00+4с2497100 1.2 1006232
12:00+5ссз3892100 0.1 1012702
15:00+5сз3890100 0.2 1016523
18:00+5зсз2396100 0.0 1019104
21:00+5ю1195100 0.0 102113
29 октября, пт
пт2900:00+4ююз2597100 0.0 1022118
03:00+4ю31092100 0.0 1022347
06:00+5ю41287100 0.5 1020484
09:00+6ююз51489100 0.8 1018674
12:00+8юз5139299 0.0 1018782
15:00+10зюз514855 0.0 1018655
18:00+9зюз5148854 0.0 1019491
21:00+8зюз5159065 0.0 1019498
30 октября, сб
сб3000:00+9юз5159248 0.0 1019518
03:00+8юз5159292 0.0 1020516
06:00+8юз4149396 0.0 1020507
09:00+8зюз4139399 0.0 1021561
12:00+10зюз41184100 0.0 1021625
15:00+11юз4118273 0.0 1021646
18:00+9юз31193100 0.0 1021405
21:00+8ююз41292100 0.0 1021420
31 октября, вс
вс3100:00+7ююз4129191 0.0 1021421
03:00+6юз4129462 0.0 1021407
06:00+6юз41295100 0.0 1020436
09:00+7зюз41090100 0.0 1021502
12:00+8юз3887100 0.0 1021402
15:00+8ююз3885100 0.0 1021404
18:00+6ююз399382 0.0 1020266
21:00+6ююз31194100 0.0 1020283